User: anonymous   Login
Location: Unspecified
(0.0000°N, 0.0000°E)
Time: 15:31:50
(UTC+00:00)
Language:

CAS-4B - Orbit

View from above orbital plane
View from above orbital plane
View from above satellite
View from above satellite

Ground track
Ground track

The orbit data is extracted from the following two-line orbital elements,

1 42759U 17034B   18111.23319821  .00000260  00000-0  29622-4 0  9996
2 42759  43.0196  35.9227 0007580 110.1807  43.2335 15.09252347 46848
Epoch (UTC): 21 April 2018 05:35:48
Eccentricity: 0.0007580
inclination: 43.0196°
perigee height: 533 km
apogee height: 544 km
right ascension of ascending node: 35.9227°
argument of perigee: 110.1807°
revolutions per day: 15.09252347
mean anomaly at epoch: 43.2335°
orbit number at epoch: 4684

The dashed part of the orbit path shows where the satellite is in the earth's shadow,  

DLR